sat.trackr.live / text

‹ back to catalog

KUIPER-00110

NORAD 65148 · 2025-171S

PAYLOAD ACTIVE UNKNOWN

§ Identity

Operator
Country
US
Launch date
2025-08-11
Launch site
AFETR
Launch vehicle
Mass (kg)
RCS (m²)

External: N2YO · Heavens-Above · Gunter

§ Orbital elements

Epoch: 2026-09-21T12:53:10.482432Z

Period
97.30 min
Inclination
51.9019°
Eccentricity
0.0000405
Mean motion
14.79932255 rev/d
Perigee alt
629.3 km
Apogee alt
629.8 km
Semi-major
7,007.7 km
B*
1.1690e-4
RAAN
22.0968°
Arg perigee
122.2682°
Mean anomaly
237.8320°
Rev number
6,174

§ Raw data

KUIPER-001101 65148U 25171S   26264.53692688  .00000670  00000+0  11690-3 0  99992 65148  51.9019  22.0968 0000405 122.2682 237.8320 14.79932255 61740

JSON: /api/v1/satellites/65148 · /tle

For live sub-satellite position, see the globe view (requires WebGL).

§ Visibility from observer

Set your observer location to see the next 7 days of passes ≥ 10°. The values pass through the URL so the page stays shareable.

No JS? Fill the form by hand. The geolocation button needs JavaScript.